Wind_Speed
27 27 27 28 28 29 29 29 29 29 29 29 29 29 29 30 30 30 31 32 33 34 35 36 37 37 38 38 39 39 39 39 38 38 38 39 39 39 39 40 40 39 38 36 34 33 32 32 32 31 30 29 27 26 25 25 24 23 21 20 19 18 16 16 15 14 14 13 11
27 27 27 27 28 28 28 28 28 28 29 29 29 29 30 30 30 30 31 32 33 34 35 36 36 36 37 37 38 38 38 38 39 39 39 40 40 41 41 41 41 39 37 35 34 33 33 33 33 32 31 29 28 27 26 26 24 23 22 21 19 18 17 16 15 14 13 12 11
27 27 27 26 26 27 28 27 28 28 29 29 29 29 30 30 30 30 31 32 33 34 34 35 36 36 37 37 37 37 38 38 39 39 41 42 41 40 39 39 39 37 35 33 33 33 33 33 32 32 31 30 28 27 27 26 25 24 22 21 20 18 17 16 15 14 13 12 11
27 27 27 27 27 27 28 28 29 29 29 29 29 29 29 29 30 30 31 31 32 33 34 35 35 36 36 37 37 37 37 38 39 40 41 40 38 37 37 36 35 35 34 33 32 32 32 32 32 32 32 30 29 28 27 27 25 24 23 21 20 18 17 16 14 13 13 12 11
27 27 27 27 28 28 29 29 30 30 30 30 29 29 29 29 29 30 30 30 31 33 34 35 35 35 36 36 36 36 37 38 39 40 39 36 35 35 34 34 33 33 33 33 32 32 32 32 31 32 32 31 29 28 28 27 26 24 23 21 20 18 17 16 14 13 13 12 12
27 27 27 27 28 28 28 29 29 30 30 29 29 29 29 29 29 30 30 31 32 33 33 34 34 35 35 35 36 36 37 38 39 39 37 35 34 33 32 32 32 33 33 33 33 32 32 31 31 32 32 31 30 29 28 27 26 24 23 22 20 19 17 16 15 14 13 13 12
28 28 27 27 28 28 28 28 28 29 29 29 29 29 30 30 30 30 31 31 32 32 33 33 34 34 35 35 35 36 36 37 38 37 35 33 33 33 32 32 33 33 33 33 33 33 32 31 30 31 32 32 31 30 29 27 26 24 23 22 20 19 17 16 15 14 14 13 12
28 28 28 28 28 28 28 28 28 28 28 29 29 30 31 31 31 31 31 31 31 32 33 33 34 34 35 36 36 36 36 36 37 35 32 33 33 34 34 33 33 34 34 34 33 32 31 30 30 30 32 32 32 31 30 28 27 25 23 22 20 19 17 16 16 15 14 14 13
28 28 28 28 28 28 28 28 28 29 29 29 30 31 31 31 31 31 31 31 32 32 32 33 33 34 34 35 35 36 36 36 36 34 33 33 34 35 35 35 34 34 34 34 33 32 31 30 30 31 32 33 32 32 30 29 27 25 24 22 20 19 18 17 16 16 15 14 14
27 28 28 28 28 28 28 28 29 29 29 30 30 30 30 30 31 31 31 31 31 31 32 32 33 33 34 34 35 35 36 36 36 34 33 34 35 35 36 36 35 34 34 33 33 32 31 31 30 31 32 33 32 31 30 28 27 25 24 22 21 19 19 18 17 16 16 15 14
28 28 29 28 28 28 28 28 29 29 29 29 29 29 29 30 30 30 30 31 30 31 31 32 32 32 33 34 34 35 35 35 35 34 34 34 34 35 35 36 35 34 34 34 33 33 32 31 31 31 32 32 31 30 28 26 25 24 23 22 21 20 20 19 18 17 16 15 14
28 29 29 29 29 29 29 29 29 29 28 28 29 29 29 29 30 30 30 30 30 30 30 31 31 32 32 33 33 34 34 34 34 34 34 34 34 34 34 34 33 33 33 34 34 33 32 32 31 31 31 31 30 29 26 25 24 23 22 22 21 21 20 20 19 17 16 15 15
28 29 29 29 29 29 29 29 29 29 29 29 29 29 29 29 29 29 29 29 29 29 30 30 31 31 32 32 32 32 33 33 33 33 32 32 32 32 32 31 31 31 32 33 33 33 32 32 32 32 32 32 31 29 27 25 24 23 23 22 22 22 21 20 19 17 16 15 15
28 29 29 29 30 29 29 29 29 29 29 29 29 29 28 28 28 28 28 28 29 29 29 30 30 30 31 31 31 31 32 32 32 31 31 31 31 31 30 30 30 30 30 31 32 31 31 31 32 32 33 32 31 30 28 26 25 24 24 23 23 22 22 20 19 17 16 16 16
28 28 29 29 30 30 30 29 29 29 29 29 29 28 28 28 27 27 27 27 28 29 29 30 30 30 30 30 30 30 31 31 31 30 30 30 30 31 31 30 30 30 30 30 30 30 30 31 32 32 32 32 32 30 29 27 26 25 24 23 23 22 21 20 18 17 17 17 17
27 28 29 29 29 30 29 29 29 29 29 29 28 28 27 27 27 26 27 27 28 28 29 29 29 29 29 29 29 29 30 30 30 29 29 29 30 31 31 31 31 31 31 31 30 29 30 30 31 31 31 31 31 30 28 26 25 24 24 24 23 22 21 19 18 17 17 17 17
27 27 28 29 29 29 29 29 29 29 29 29 28 28 27 26 26 26 27 27 28 28 28 28 28 28 28 28 29 29 29 29 29 29 29 30 30 31 32 32 32 33 33 32 31 30 30 30 31 31 31 30 30 28 26 24 24 24 24 24 23 22 20 18 18 18 18 18 17
26 27 28 28 29 29 29 29 29 29 29 28 28 27 27 26 26 26 26 27 27 27 27 28 28 28 28 28 28 29 29 29 29 29 30 30 30 31 31 32 33 34 34 33 32 31 31 31 30 30 30 29 28 26 24 23 23 24 24 24 23 21 20 18 18 18 18 18 16
26 26 27 27 28 29 29 29 29 29 29 28 27 27 26 26 26 26 26 26 26 26 27 27 27 27 28 28 28 29 29 29 29 29 29 30 30 30 30 31 32 33 33 33 32 31 31 30 30 30 29 28 26 24 23 22 23 24 25 23 22 20 19 19 19 19 18 17 15
26 26 27 27 27 28 28 28 28 28 28 27 27 26 26 26 25 25 25 25 25 26 26 26 26 27 27 27 28 28 28 29 28 28 28 29 29 29 29 30 31 31 32 31 31 30 30 30 29 29 28 27 25 23 22 22 24 25 24 23 21 20 19 19 19 19 18 16 15
25 25 26 26 26 27 27 27 27 27 26 26 26 25 25 25 25 25 25 25 25 25 25 25 26 26 27 27 27 27 27 28 27 27 27 27 28 28 29 29 30 30 30 30 30 30 29 29 28 28 27 26 24 23 22 23 24 25 24 22 20 20 19 19 19 19 18 16 15
23 23 24 24 25 25 25 25 25 25 25 25 25 25 24 25 25 25 24 24 25 25 25 25 25 26 26 26 26 26 26 26 26 26 26 26 26 27 27 28 28 29 29 29 29 29 29 28 27 26 25 24 23 23 23 24 26 25 24 22 20 20 19 19 19 19 18 17 16
21 21 22 23 23 23 23 24 24 24 24 24 24 24 24 24 24 24 24 24 24 24 24 24 24 24 25 25 25 25 25 25 25 25 25 25 25 26 26 26 27 27 28 28 28 28 28 27 26 25 24 24 23 24 25 27 26 25 23 22 20 20 19 19 19 19 18 17 16
19 20 20 21 21 22 22 22 23 23 23 23 23 23 23 23 23 24 24 23 23 23 23 23 23 23 23 24 24 24 24 24 24 24 24 25 25 25 26 26 26 26 27 27 27 27 27 26 25 24 24 24 24 26 27 27 26 24 22 21 20 19 19 19 19 18 17 16 16
17 18 18 19 20 20 21 21 21 22 22 22 22 22 22 22 22 23 23 22 22 22 22 22 23 23 23 23 23 23 23 23 23 24 24 24 24 25 25 25 26 26 26 26 26 26 25 25 24 24 24 25 26 27 27 26 24 23 21 21 20 19 19 19 18 17 16 15 14
16 16 17 17 18 18 19 19 20 20 20 21 21 21 21 21 21 21 22 22 22 22 22 22 22 22 22 22 22 22 22 22 23 23 24 24 24 24 24 24 24 25 25 25 24 24 24 23 23 24 25 26 27 27 26 25 23 22 21 20 19 19 19 18 17 16 15 13 12
14 15 15 15 16 16 17 17 18 18 19 19 20 20 20 20 20 20 21 21 21 21 21 21 22 22 22 21 21 21 21 22 22 22 23 23 23 23 23 23 23 23 23 23 23 22 22 23 23 24 25 26 26 26 24 23 22 21 20 20 19 19 18 18 16 15 13 11 10
13 13 14 14 15 15 16 16 17 17 18 18 19 19 19 19 20 20 20 21 21 21 21 21 21 21 21 20 21 21 21 21 21 22 22 22 23 23 22 22 22 22 22 21 21 21 22 22 23 24 25 25 25 24 23 22 22 21 20 19 19 18 18 16 15 13 12 10 9
12 13 13 14 14 15 15 15 16 16 17 17 18 18 18 19 19 20 20 20 20 21 21 21 20 20 20 20 20 20 20 21 21 21 21 21 22 22 21 21 21 20 20 20 20 20 21 22 22 23 23 23 23 23 22 22 21 21 20 19 19 18 17 15 14 12 10 10 10
12 12 13 13 14 14 15 15 15 16 16 17 17 17 18 18 18 19 19 19 20 20 20 20 20 20 20 20 20 20 20 20 20 20 21 21 21 21 21 20 20 20 19 19 19 20 20 21 21 21 21 21 22 22 22 21 21 20 20 19 18 17 16 15 13 11 10 10 12
12 12 12 13 13 14 14 14 15 15 16 16 16 17 17 17 18 18 18 19 19 19 19 19 19 19 19 19 19 19 19 19 19 20 20 20 20 20 20 19 19 19 19 18 19 19 19 19 19 19 20 20 21 21 21 21 20 20 19 19 18 17 16 14 12 11 11 12 14
12 12 12 12 13 13 14 14 14 15 15 15 15 16 16 16 17 17 17 17 18 18 18 18 18 18 18 19 19 19 19 19 19 20 20 19 19 19 19 19 19 18 18 18 18 18 18 18 18 18 18 19 20 21 21 20 20 19 19 18 18 17 16 15 14 13 14 15 15
11 11 11 12 12 13 13 13 14 14 14 14 14 15 15 15 15 16 16 16 17 17 17 17 18 18 18 18 18 18 18 19 19 19 19 18 18 18 18 18 18 18 17 17 17 17 16 16 16 17 17 17 19 20 20 19 19 19 18 18 18 17 17 16 16 15 15 15 14
11 11 11 11 11 12 12 13 13 13 13 13 14 14 14 14 14 15 15 16 16 16 16 16 17 17 17 17 17 17 18 18 18 18 18 17 17 18 18 18 18 17 16 16 16 15 15 15 15 16 16 16 17 18 18 18 18 18 18 18 18 18 17 17 16 15 14 13 13
11 11 11 11 11 11 12 12 12 12 12 13 13 13 13 13 13 14 14 15 15 15 15 15 15 15 15 15 16 16 17 17 17 17 17 17 17 17 18 18 17 16 16 15 15 14 14 14 14 15 15 15 16 17 17 17 17 17 17 17 17 16 16 15 14 13 13 13 13
10 10 11 11 11 11 11 11 11 12 12 12 12 12 12 12 12 13 13 13 13 14 14 14 14 14 14 15 15 15 16 16 16 16 16 16 17 17 17 17 16 15 15 14 14 14 13 13 13 14 14 14 15 16 16 16 16 16 16 15 15 15 14 13 13 12 12 13 13
10 10 10 10 10 10 10 11 11 11 11 11 11 11 11 11 11 11 12 12 12 12 13 13 13 13 14 14 15 15 15 15 15 15 15 15 16 16 16 16 15 14 14 13 13 13 13 13 13 13 13 13 14 15 15 15 15 15 15 15 15 14 14 13 12 12 13 13 14
10 9 9 9 9 9 10 10 10 10 10 10 10 10 9 9 10 10 11 11 11 11 11 11 12 12 13 13 14 14 13 13 13 14 14 15 15 15 15 15 14 13 13 12 12 13 13 13 13 12 12 13 14 14 14 14 15 15 15 15 15 14 14 13 13 13 14 15 16
9 9 8 8 8 8 8 8 8 8 8 8 8 8 8 8 8 9 9 9 9 9 10 10 11 11 11 12 12 12 12 12 12 13 13 13 13 13 13 14 13 12 11 11 11 12 13 13 13 12 12 13 13 14 14 14 15 15 16 15 15 14 14 14 14 15 15 16 17
9 8 7 6 6 6 6 6 6 6 6 6 6 6 6 6 7 7 7 7 8 8 8 9 9 9 10 10 11 11 11 11 11 11 11 12 12 12 12 12 11 11 10 9 10 10 12 12 12 12 12 12 13 13 13 14 14 15 15 15 15 15 15 15 15 16 17 17 18
8 7 6 5 5 4 4 4 4 4 4 4 4 4 4 4 5 5 6 6 7 7 7 8 8 8 8 9 9 9 10 10 10 10 10 10 10 10 10 10 9 9 8 8 8 9 9 10 10 11 11 11 12 12 12 13 14 14 15 15 15 15 16 16 17 17 18 18 18
Wind_Direction
203 201 200 200 200 199 199 200 201 201 201 200 199 200 201 203 204 205 207 208 209 211 213 215 217 219 220 222 223 224 224 225 226 227 227 228 228 228 227 226 225 224 222 222 222 223 224 225 225 225 224 223 222 223 224 225 226 226 225 224 223 223 223 224 223 221 218 216 215
204 202 201 200 200 200 200 200 201 202 203 203 203 204 205 205 206 207 208 210 212 213 215 216 218 219 221 223 224 225 225 226 226 227 227 227 228 228 227 226 224 223 222 223 224 225 225 225 225 224 223 222 222 223 224 226 227 227 227 225 224 224 224 225 226 226 224 221 218
203 202 201 199 199 199 199 199 200 202 204 205 206 207 207 208 208 209 210 212 214 215 216 217 219 221 222 224 225 226 226 227 227 227 226 226 226 226 225 224 222 222 223 225 227 227 227 227 227 226 224 222 221 223 224 226 227 227 227 226 225 224 224 226 227 228 228 226 222
203 202 199 198 198 199 199 201 202 204 206 207 208 208 209 210 210 211 213 214 215 216 217 219 221 222 223 225 226 227 228 228 228 227 226 225 225 224 223 222 221 221 223 226 228 229 229 229 229 228 226 224 222 223 224 226 226 227 227 226 226 225 225 227 228 230 230 229 227
203 202 200 199 200 201 203 204 205 207 208 208 207 208 209 210 211 212 213 215 216 218 220 221 222 223 225 226 227 228 229 229 228 226 225 225 223 222 222 222 223 223 224 226 228 229 230 230 230 230 229 227 224 224 225 225 225 225 225 226 225 224 225 227 229 230 231 231 230
203 202 202 201 202 203 204 206 208 209 209 208 207 207 208 210 211 213 214 216 218 220 222 223 223 224 225 226 227 228 229 228 227 225 223 221 221 221 223 224 226 226 226 227 228 229 229 230 231 231 230 228 226 225 225 225 225 224 224 224 224 223 224 226 229 231 232 232 231
204 203 202 202 203 204 205 207 208 209 209 209 208 209 210 212 213 215 217 219 221 222 222 223 223 225 226 226 227 227 227 227 225 224 222 221 221 221 223 226 227 228 228 228 228 229 230 230 230 231 230 229 227 225 225 224 224 223 223 223 223 223 223 225 228 230 232 232 231
205 204 204 204 204 205 206 207 209 209 209 210 211 213 214 216 216 218 219 220 221 222 223 224 225 226 227 228 228 228 227 226 225 226 226 223 222 223 225 227 228 228 229 229 229 229 229 230 230 231 231 230 227 225 224 223 222 221 222 222 222 222 223 225 227 229 230 231 231
204 204 205 205 206 206 208 209 210 211 211 212 214 216 217 218 219 219 219 220 222 224 225 225 226 227 228 229 229 229 228 228 226 226 226 224 223 224 225 226 227 228 228 229 229 228 229 230 230 231 231 230 228 226 224 222 220 219 220 220 220 220 221 223 225 226 228 229 230
203 204 204 205 206 207 209 210 212 213 214 215 217 218 218 219 220 221 221 223 225 225 226 227 228 228 229 229 230 230 230 229 227 227 226 223 222 223 224 225 225 226 227 227 228 228 229 230 229 229 229 229 228 226 224 222 220 219 218 218 217 217 218 220 222 223 224 225 227
204 204 205 205 206 208 209 209 211 213 215 216 217 218 218 219 221 222 223 225 225 225 227 229 230 230 230 230 231 231 231 230 229 227 225 224 223 223 224 225 225 225 225 226 227 229 230 230 228 226 225 226 227 227 225 223 222 221 220 218 216 215 215 217 218 220 220 222 224
206 206 206 207 207 208 208 209 210 212 213 215 217 218 219 220 221 223 223 224 225 227 230 232 232 232 232 233 232 232 231 231 230 228 226 225 224 224 224 225 225 224 224 225 227 228 229 229 227 223 222 223 225 226 226 226 226 225 224 221 218 216 216 216 216 216 217 219 222
207 207 207 207 207 208 208 209 210 211 213 215 217 219 220 221 222 223 223 224 227 229 231 233 233 234 234 234 234 233 231 231 230 229 227 226 224 224 224 225 225 224 225 226 227 227 227 226 225 222 220 221 223 225 226 227 228 227 226 224 221 219 218 216 215 214 214 217 221
207 207 206 206 207 207 208 208 210 211 213 215 217 219 220 221 222 223 224 226 229 231 232 232 233 234 235 235 234 233 232 231 230 229 227 226 224 224 224 224 225 225 226 227 227 226 224 223 223 222 220 220 221 222 224 225 227 227 227 225 223 221 219 218 215 213 213 216 220
206 207 207 207 207 207 207 208 210 212 213 215 218 220 220 221 222 224 226 228 230 232 233 233 233 234 235 235 234 234 233 232 231 230 228 226 226 225 225 225 225 225 226 227 227 225 224 223 222 221 219 219 220 221 221 222 225 227 227 226 224 223 221 218 214 212 212 215 219
205 206 206 206 206 207 207 208 210 212 214 216 218 220 220 221 223 225 227 229 231 232 233 234 234 235 235 234 234 233 233 232 232 230 229 228 228 228 227 226 226 226 226 226 226 225 225 224 223 221 220 220 220 220 220 221 224 226 227 227 226 224 221 218 214 212 213 216 221
204 205 206 206 206 207 208 209 211 213 215 217 219 220 221 222 224 227 228 230 231 232 233 235 236 235 234 234 234 233 232 232 232 231 231 230 231 230 229 228 228 228 228 227 227 226 226 225 224 222 221 221 221 221 221 222 225 228 229 228 227 225 222 218 216 215 217 220 224
203 204 206 207 207 208 210 211 212 214 216 218 219 221 223 225 226 227 230 232 233 234 235 236 236 236 235 234 234 233 233 232 233 233 233 233 233 233 232 231 230 231 231 230 229 228 227 226 224 222 221 222 222 222 222 224 227 229 229 228 227 224 222 220 219 220 222 225 228
203 204 206 207 209 210 212 213 215 216 218 219 221 223 224 226 227 229 231 233 235 236 237 236 236 236 236 236 235 235 235 235 235 236 236 235 235 235 233 232 232 232 232 232 231 230 229 228 225 223 221 221 221 221 222 225 228 230 230 229 227 224 222 222 223 225 226 228 230
204 206 207 209 211 212 214 215 217 218 220 221 223 224 225 227 229 231 232 234 237 238 238 236 236 236 237 237 236 236 236 237 237 236 236 236 235 234 234 233 232 232 232 232 231 231 230 229 227 224 222 221 220 220 221 224 227 229 230 229 226 223 222 223 225 227 228 228 229
207 208 210 212 213 214 215 217 218 220 221 223 224 225 226 228 230 232 234 236 237 237 237 236 237 237 237 238 237 236 236 237 236 236 235 235 234 234 234 233 232 232 232 232 232 232 232 230 228 226 224 221 220 219 220 222 226 228 229 227 225 222 223 225 227 228 228 227 228
209 211 212 213 214 215 216 217 218 220 222 223 225 226 227 229 231 232 234 236 236 236 236 238 238 239 239 240 239 238 237 236 235 235 234 233 233 233 233 232 232 232 232 233 234 234 233 232 230 228 225 223 221 220 221 222 224 226 226 224 222 222 223 226 228 229 228 228 229
210 211 212 213 214 215 216 217 218 220 222 224 225 226 228 229 230 231 232 233 234 236 237 239 240 241 241 242 241 239 237 235 235 234 233 233 233 232 232 232 232 233 234 236 236 235 234 232 231 229 227 224 223 222 223 224 225 224 223 221 220 221 223 226 228 229 230 230 231
209 211 212 213 214 215 216 217 219 220 222 224 225 226 228 229 229 230 231 232 234 236 238 239 240 240 241 241 240 239 237 236 234 233 233 233 232 232 232 233 234 235 237 239 239 239 237 234 231 229 226 224 223 223 224 225 225 224 222 220 220 221 223 226 228 229 230 231 233
209 211 212 213 214 215 217 218 219 221 223 225 226 227 228 229 229 230 231 233 235 236 237 238 239 239 240 239 238 238 238 237 236 235 233 233 233 233 233 234 236 238 240 241 241 241 239 237 234 230 226 223 222 223 224 225 225 224 222 221 221 222 224 225 227 227 229 231 234
210 211 212 213 215 216 217 218 220 222 224 225 227 227 228 229 230 231 232 233 234 235 236 237 238 238 238 237 236 236 237 237 238 237 235 234 233 233 234 236 238 241 242 242 242 241 239 237 234 230 226 224 222 223 223 224 224 223 223 222 222 223 225 226 226 226 228 231 237
211 212 212 214 215 216 217 220 221 223 224 226 226 227 228 229 230 231 232 233 233 234 235 235 236 236 236 235 235 235 235 236 237 237 237 236 235 235 236 239 242 244 245 245 243 240 237 233 231 229 227 225 224 223 223 223 223 223 223 223 223 224 225 225 225 226 229 235 245
212 212 212 213 213 215 217 219 220 221 223 225 226 227 227 228 229 230 231 231 231 232 232 233 234 234 234 234 234 235 236 236 237 236 237 237 237 238 240 242 245 248 249 247 243 238 233 230 228 228 227 226 225 224 223 223 223 223 223 223 224 224 225 225 225 227 232 241 252
211 212 211 211 212 213 215 217 219 221 223 225 225 226 226 227 228 229 229 229 229 230 230 231 232 233 233 233 235 236 236 236 236 237 236 236 237 239 241 244 247 250 251 248 242 235 230 227 227 229 229 227 225 223 223 223 223 223 223 224 224 225 224 224 224 228 236 248 259
210 210 210 210 211 213 214 216 218 220 222 223 224 224 225 226 227 227 228 228 229 230 231 232 232 232 232 234 235 235 234 235 236 237 237 237 237 238 241 244 248 251 250 246 239 233 229 227 227 228 229 228 225 223 223 223 224 225 225 226 226 225 224 224 226 234 247 258 264
208 208 209 210 211 212 213 215 217 219 221 222 223 224 225 225 226 227 228 229 230 231 232 232 232 233 234 235 235 234 234 235 237 237 238 238 238 239 242 245 248 250 248 243 237 232 229 227 226 226 227 227 225 223 223 224 225 226 227 228 228 227 226 227 232 243 254 259 261
207 208 208 209 210 211 212 213 215 216 219 220 221 223 224 225 226 227 228 229 229 229 230 231 232 233 234 235 235 235 235 236 237 238 238 239 239 240 243 246 248 249 246 242 237 233 230 227 224 223 224 226 225 224 224 224 226 227 229 230 230 230 231 234 240 248 253 256 259
207 207 207 207 208 209 210 211 212 214 216 218 219 221 223 224 225 226 227 227 228 229 230 231 232 232 232 233 234 234 235 236 237 238 239 239 240 242 244 247 248 247 245 241 236 233 229 224 220 218 219 223 226 226 226 226 227 228 230 232 233 234 236 240 246 250 254 257 262
206 206 206 206 207 207 208 209 210 212 213 215 217 219 221 223 224 224 225 227 228 230 232 233 234 234 235 236 235 235 236 237 238 238 239 240 241 243 245 246 247 246 244 240 236 231 225 220 215 213 214 219 225 228 228 228 229 230 232 233 235 238 242 246 251 255 259 263 267
206 205 204 204 206 207 207 208 209 210 211 213 215 218 220 223 224 225 226 228 229 230 231 232 234 235 235 236 237 238 239 240 240 241 242 243 243 244 245 246 247 246 243 239 233 227 219 214 210 209 210 216 225 230 232 232 233 234 236 239 242 246 251 255 259 262 265 268 273
208 206 205 204 205 206 208 208 209 210 212 214 216 218 220 223 225 227 228 229 230 231 231 232 234 234 234 236 238 240 241 243 244 245 245 246 246 246 246 246 246 246 243 239 231 222 213 208 206 206 208 214 223 231 236 238 241 243 247 251 255 259 262 266 267 268 270 273 278
209 208 207 206 207 208 209 210 211 212 214 217 219 221 223 224 225 227 229 231 232 233 235 237 237 237 238 239 240 242 244 246 247 248 248 249 249 248 248 248 247 246 244 239 229 217 208 203 203 205 208 214 222 230 237 243 247 252 257 262 265 269 271 272 272 273 275 278 283
207 208 208 209 209 210 211 213 214 215 217 220 222 224 227 229 229 231 233 235 236 237 239 242 242 243 244 245 246 246 248 250 250 251 252 252 252 252 251 250 249 248 245 239 229 217 207 202 202 205 210 216 223 230 237 244 250 256 261 266 270 272 273 274 274 275 279 283 287
203 205 206 209 211 212 212 214 217 218 221 223 225 227 230 232 234 235 237 240 243 245 246 248 248 249 250 249 249 249 250 252 253 254 255 255 255 255 255 253 251 250 246 239 229 219 211 207 205 208 214 221 228 234 239 245 251 256 261 266 269 271 273 274 275 278 282 286 290
198 199 201 204 208 209 211 213 216 219 222 227 230 232 233 235 237 239 241 244 248 251 253 255 255 255 254 254 253 253 254 255 256 257 257 257 257 257 256 255 253 250 245 239 230 222 217 214 213 215 220 227 234 239 243 248 252 257 261 265 269 272 274 277 280 283 287 290 293
191 191 191 192 195 197 201 206 209 212 217 227 236 241 244 245 247 247 247 249 251 253 255 257 257 257 257 258 259 260 259 259 259 259 259 258 257 256 255 255 253 249 244 237 230 224 221 220 219 221 226 233 238 243 247 250 255 260 264 268 272 275 279 283 286 289 291 293 295
Height
763 765 766 767 768 769 771 772 773 775 776 777 779 780 781 783 784 785 786 787 789 790 791 792 793 795 796 797 798 799 801 801 803 803 804 805 806 806 807 808 809 810 811 812 813 815 816 816 817 818 819 821 821 822 823 824 825 826 826 827 827 828 828 829 829 829 829 829 830
762 764 765 766 767 768 770 771 773 774 776 777 778 779 780 781 783 784 785 786 787 789 790 791 792 794 795 796 797 798 799 800 801 802 802 803 803 804 805 806 806 808 809 811 813 814 815 815 816 817 818 819 820 821 822 823 824 825 826 826 826 827 828 828 829 829 829 829 830
761 762 764 765 766 768 769 771 772 773 775 776 777 778 780 781 782 783 784 785 787 788 789 791 791 793 794 795 796 797 798 799 800 800 801 801 801 802 803 804 805 807 809 811 813 814 814 815 816 816 816 817 818 820 821 822 823 824 825 825 826 827 827 828 829 829 829 829 829
760 761 763 764 765 766 768 769 771 772 774 775 776 778 779 780 781 782 783 785 786 787 788 789 790 791 792 794 795 796 796 797 798 798 798 798 800 801 802 804 805 806 808 810 812 813 814 814 815 816 816 816 817 818 819 821 822 823 824 825 825 826 827 827 828 829 829 829 829
759 760 761 762 764 765 766 768 769 771 772 774 776 777 778 779 780 781 783 784 785 786 787 788 789 790 791 792 793 795 796 796 796 796 797 798 800 801 803 804 805 806 807 809 810 811 812 813 815 815 816 816 816 817 818 819 821 822 823 824 825 826 826 827 828 828 829 829 829
758 760 761 762 763 764 766 767 768 770 771 773 774 776 777 778 779 781 781 782 783 785 786 787 788 790 791 791 792 793 794 795 795 795 796 797 799 801 802 804 804 805 806 807 808 809 811 812 813 814 815 815 816 816 817 818 820 821 822 823 824 825 825 826 827 827 828 828 829
757 759 760 761 762 764 765 766 768 769 771 772 773 774 776 776 778 779 780 781 782 784 785 786 787 788 789 790 791 792 793 793 793 794 795 797 798 800 801 802 803 804 804 805 806 807 809 810 812 813 814 815 815 815 816 817 818 819 821 821 822 823 824 825 826 826 827 827 828
756 758 759 760 761 763 764 766 767 768 770 771 772 773 774 775 776 778 779 780 781 783 784 785 786 787 788 789 790 791 791 792 792 793 795 796 797 798 799 800 801 802 803 803 804 806 807 809 811 812 813 814 814 814 815 816 817 818 819 820 821 822 823 824 825 826 826 826 827
756 757 758 760 761 762 763 765 766 767 768 770 771 772 773 774 775 776 778 779 780 781 783 784 785 786 787 788 788 789 790 791 791 792 793 795 796 796 797 798 799 800 801 802 803 804 806 807 809 810 811 812 813 813 813 814 815 816 817 819 820 821 822 823 824 824 825 825 826
755 756 758 759 760 761 763 764 765 766 767 768 770 771 772 773 775 776 777 778 779 781 782 783 784 785 786 787 787 788 789 790 790 791 792 793 794 794 795 796 797 798 799 800 801 803 804 806 806 808 809 811 812 813 813 814 814 815 816 817 818 819 820 821 822 823 823 824 825
754 756 757 758 759 761 762 763 764 765 766 768 769 770 771 773 774 775 776 777 779 780 781 782 783 784 785 786 786 787 788 789 790 791 791 792 792 793 794 795 796 797 798 799 800 801 802 803 804 805 807 809 811 812 813 814 814 815 815 816 816 817 818 819 820 821 822 822 823
753 755 756 757 758 760 761 762 763 765 766 767 768 770 771 772 773 774 776 777 778 779 780 781 782 783 784 785 786 786 787 788 789 790 790 791 792 792 793 794 795 796 797 798 799 800 801 801 802 804 806 808 810 811 812 813 814 815 815 815 816 816 817 817 818 820 821 821 822
752 754 755 756 758 759 760 761 763 764 765 766 767 769 770 771 772 774 775 776 777 778 779 780 781 782 783 784 785 786 786 787 788 789 790 790 791 792 793 794 795 796 796 797 797 798 799 801 801 802 804 806 808 810 811 813 814 814 815 815 815 816 816 816 817 818 819 820 821
752 753 754 756 757 758 759 761 762 763 764 765 766 768 769 770 772 773 774 775 776 777 778 779 780 781 782 783 784 785 786 786 787 788 789 790 791 791 792 793 794 795 796 796 797 798 799 799 800 801 802 804 806 808 810 811 813 814 814 815 815 815 816 816 817 817 818 819 819
751 752 754 755 756 757 759 760 761 762 763 765 766 767 768 770 771 772 773 775 776 776 777 778 779 780 781 782 783 784 785 786 786 787 788 789 790 790 791 792 793 794 795 796 796 797 798 798 799 799 801 803 804 806 808 810 811 813 814 814 814 814 815 816 816 817 817 818 818
750 752 753 754 756 756 758 759 760 761 763 764 765 766 768 769 771 772 773 774 775 776 776 777 778 779 781 781 782 783 784 785 785 786 787 788 788 789 790 791 792 792 793 794 795 796 796 797 798 799 800 802 803 805 806 808 810 812 813 813 813 814 814 815 816 816 816 817 817
750 751 752 753 755 756 757 758 760 761 762 763 765 766 767 768 770 771 772 773 774 774 775 776 777 778 779 780 781 782 783 784 784 785 786 786 787 788 789 790 790 791 791 792 793 794 795 796 797 798 800 801 803 804 806 808 810 811 812 812 812 813 814 815 815 816 816 816 816
749 751 752 753 754 755 756 758 759 760 761 762 764 765 766 768 769 770 771 771 772 773 774 775 776 777 778 779 780 781 781 782 783 784 784 785 786 786 787 788 789 790 790 791 792 792 793 794 796 797 799 801 802 804 806 807 809 810 811 811 811 812 813 814 814 815 815 816 816
749 750 751 752 754 755 756 757 758 759 761 762 763 765 766 767 768 769 770 771 772 773 774 775 776 776 777 778 779 780 780 781 782 782 783 784 785 786 786 787 788 789 789 790 791 792 792 793 795 796 798 800 802 803 805 807 808 809 810 810 811 811 812 813 814 814 814 815 815
748 750 751 752 753 754 756 757 758 759 760 761 763 764 765 766 767 768 769 770 771 772 773 774 775 776 776 777 778 779 779 780 781 782 783 783 784 785 786 786 787 788 789 790 791 791 792 793 794 796 797 799 801 803 804 806 807 808 808 809 810 811 811 812 813 813 814 814 814
748 749 751 752 753 754 755 756 758 759 760 761 762 763 765 766 766 767 768 769 770 771 772 773 774 775 776 776 777 778 779 780 781 781 782 783 784 784 785 786 786 787 788 789 790 791 791 792 794 795 797 799 800 802 803 805 806 806 807 808 809 810 811 811 812 812 813 813 813
748 749 751 752 753 754 755 756 757 759 760 761 762 763 764 765 766 767 768 769 770 771 771 772 773 774 775 775 776 777 778 779 780 781 781 782 783 784 785 786 786 787 788 789 789 790 791 792 793 795 797 798 800 801 802 803 804 805 806 807 808 809 810 811 811 811 812 812 812
748 750 751 752 753 754 755 756 757 758 759 761 761 763 764 765 766 766 767 768 769 770 771 772 773 773 774 775 776 777 778 779 779 780 781 782 782 783 784 785 786 786 787 788 789 790 791 792 793 795 796 798 799 800 801 802 803 804 805 806 807 808 809 810 811 811 811 811 811
748 749 751 751 753 754 755 756 757 758 759 760 761 762 763 764 765 766 767 768 769 770 771 771 772 773 774 775 776 776 777 778 779 779 780 781 782 783 783 784 785 786 787 787 788 789 790 791 793 794 796 797 798 799 800 801 802 803 804 805 806 807 808 809 810 810 810 811 811
748 749 750 751 752 753 755 756 756 758 759 760 761 762 763 764 765 766 766 767 768 769 770 771 771 772 773 774 775 776 776 777 778 779 779 780 781 782 782 783 784 785 786 787 788 789 790 791 792 794 795 796 797 798 799 800 801 802 803 804 805 806 807 808 809 809 810 810 810
748 749 750 751 752 753 754 755 756 757 758 759 761 761 762 763 764 765 766 767 768 769 770 770 771 772 773 773 774 775 776 777 777 778 779 779 780 781 782 783 784 784 785 786 787 788 790 791 792 793 794 795 796 797 799 800 801 802 803 804 805 806 806 807 808 808 809 809 810
748 749 750 751 752 753 754 755 756 757 758 759 760 761 762 763 764 765 766 766 767 768 769 770 771 771 772 773 774 775 776 776 777 778 778 779 780 781 781 782 783 784 785 786 787 788 789 791 791 792 794 795 796 797 798 799 800 801 802 803 804 805 806 806 807 807 808 808 809
747 749 750 751 752 753 754 755 756 757 758 759 760 761 761 762 763 764 765 766 767 768 769 769 770 771 772 773 773 774 775 776 776 777 778 779 779 780 781 782 782 783 784 785 786 788 789 790 791 792 793 794 795 796 797 798 799 800 801 802 803 804 805 806 806 807 807 808 808
747 748 750 751 751 752 754 755 756 756 757 758 760 761 761 762 763 764 765 766 766 767 768 769 770 771 771 772 773 774 775 775 776 777 777 778 779 780 781 781 782 783 784 785 786 787 788 790 790 791 792 793 794 796 796 797 799 800 801 801 802 803 804 805 805 806 806 807 807
747 748 750 751 751 752 753 755 756 756 757 758 759 760 761 762 763 764 765 766 766 767 768 769 770 770 771 772 773 773 774 775 776 776 777 778 779 779 780 781 782 783 784 785 786 787 788 789 790 791 791 792 793 795 796 797 798 799 800 801 801 802 803 804 804 805 806 806 806
747 749 750 751 751 752 754 755 756 756 757 758 759 760 761 762 763 764 764 765 766 767 768 768 769 770 771 771 772 773 774 775 775 776 777 777 778 779 780 781 781 782 783 785 786 787 788 789 790 790 791 792 793 794 795 796 797 798 799 800 801 801 802 803 803 804 804 804 804
747 748 750 751 751 752 754 755 756 756 757 758 759 760 761 762 762 763 764 765 766 766 767 768 769 770 771 771 772 773 773 774 775 776 776 777 778 779 780 781 781 782 783 784 785 786 787 788 789 790 791 791 792 793 794 796 796 797 798 799 800 801 801 801 802 802 802 803 803
747 748 750 751 751 752 753 754 756 756 757 758 759 760 761 761 762 763 764 765 766 766 767 768 769 769 770 771 771 772 773 774 775 775 776 777 778 779 780 780 781 782 783 784 785 786 787 788 789 790 791 791 792 792 794 795 796 797 798 798 799 800 800 800 801 801 801 801 802
747 748 749 751 751 752 753 754 755 756 757 758 759 760 761 761 762 763 764 765 766 766 767 768 768 769 770 771 771 772 773 774 774 775 776 777 778 778 779 780 781 782 783 784 785 786 787 788 789 790 791 791 791 792 793 794 795 796 797 797 798 798 799 799 800 800 800 801 801
747 748 749 751 751 752 753 754 755 756 757 758 759 760 761 761 762 763 764 765 765 766 767 768 768 769 770 771 771 772 773 773 774 775 776 776 777 778 779 779 780 781 782 784 785 786 786 788 789 790 790 791 791 792 793 794 794 795 796 796 797 797 798 798 799 799 800 800 800
747 748 749 750 751 752 753 754 755 756 757 758 759 760 761 761 762 763 764 765 765 766 767 767 768 769 770 771 771 772 772 773 774 775 776 776 777 778 778 779 780 781 782 783 784 785 786 787 788 789 790 791 791 792 792 793 794 795 795 796 796 797 797 798 798 798 799 799 799
747 748 749 751 751 752 753 754 755 756 757 758 759 760 761 761 762 763 764 765 765 766 767 767 768 769 770 770 771 771 772 773 774 775 775 776 776 777 778 779 780 781 782 783 784 785 786 787 788 789 790 791 791 791 792 793 794 794 795 795 796 796 796 797 797 797 798 798 798
748 749 750 751 751 752 754 755 755 756 757 758 759 760 761 761 762 763 764 765 765 766 766 767 768 769 769 770 771 771 772 773 774 774 775 776 776 777 778 779 780 781 782 783 784 785 786 787 788 789 790 790 791 791 792 793 793 794 794 795 795 795 796 796 796 796 796 797 797
748 749 750 751 752 753 754 755 756 756 757 758 759 760 761 761 762 763 764 765 765 766 766 767 768 769 769 770 771 771 772 773 774 774 775 776 776 777 778 779 780 781 782 783 784 785 786 787 788 789 790 790 791 791 792 793 793 793 794 794 794 795 795 795 795 796 796 796 796
748 749 750 751 752 753 754 755 756 757 757 758 759 760 761 761 762 763 764 765 765 766 767 767 768 769 770 770 771 771 772 773 774 774 775 776 776 777 778 779 780 781 782 783 784 785 786 787 788 789 790 790 791 791 792 792 793 793 793 793 793 794 794 794 794 794 794 794 795
749 750 751 752 752 753 754 755 756 757 758 759 760 760 761 762 763 763 764 765 766 766 767 767 768 769 770 770 771 771 772 773 773 774 775 776 776 777 778 779 780 781 782 783 784 785 786 787 788 789 790 790 791 791 791 792 792 792 792 792 793 793 793 793 793 793 793 793 793